Retour au catalogue

STARLINK-35718

ActifCommunicationsVLEO
NORAD 66894·PAYLOAD·🇺🇸 United States

Lancé Dec 4, 2025 depuis Vandenberg Space Force Base

Loading…

Prochains Passages (prochaines 24 heures)

TLE

FraisSource: CelesTrak SupGP

Époque: Sep 14, 2026, 22:58 UTC

1 66894C 25283S   26257.95743056  .00006459  00000+0  19078-3 0  2572
2 66894  53.1585 223.5160 0001671  94.7643 254.0549 15.34395041    14

Suivez STARLINK-35718 en temps réel avec AllMySat

Download on the App Store